Volver al catálogo

GORIZONT 1

ActivoComunicacionesHEO
NORAD 11158·PAYLOAD·🇷🇺 Russia

Lanzado Dec 19, 1978 desde Baikonur Cosmodrome

Loading…

Próximos Pases (próximas 24 horas)

TLE

ActualizadoSource: Space-Track

Época: Sep 13, 2026, 06:07 UTC

1 11158U 78118A   26256.25509103 -.00000137  00000-0  00000-0 0  9999
2 11158  12.4609 151.7840 3038708   4.0731 358.0763  1.00232562123829

Sigue GORIZONT 1 en tiempo real con AllMySat

Download on the App Store